| time (UTC) | temp F | wind direction | speed MPH | gust MPH | rain 1hr in | rain 24hr in | rain mn in | humidity % | barometer mb |
| 20260904101600 | 47 | 80 | 0.0 | 0.0 | 0.00 | 0.21 | 0.08 | 68 | 996.1 |
| 20260904100059 | 47 | 89 | 0.0 | 0.0 | 0.00 | 0.21 | 0.08 | 68 | 995.9 |
| 20260904094603 | 47 | 72 | 0.0 | 0.0 | 0.00 | 0.22 | 0.08 | 68 | 995.1 |
| 20260904093106 | 47 | 32 | 0.0 | 0.0 | 0.00 | 0.22 | 0.08 | 68 | 995.3 |
| 20260904091557 | 47 | 30 | 0.0 | 0.0 | 0.00 | 0.22 | 0.08 | 68 | 995.4 |
| 20260904090054 | 47 | 30 | 0.0 | 0.0 | 0.00 | 0.22 | 0.08 | 68 | 995.4 |
| 20260904084555 | 47 | 9 | 0.0 | 0.0 | 0.00 | 0.23 | 0.08 | 68 | 995.7 |
| 20260904083053 | 48 | 9 | 0.0 | 0.0 | 0.01 | 0.23 | 0.08 | 68 | 995.4 |
| 20260904081550 | 48 | 27 | 0.0 | 0.0 | 0.03 | 0.23 | 0.08 | 68 | 995.7 |
| 20260904080049 | 48 | 15 | 0.0 | 0.0 | 0.07 | 0.23 | 0.08 | 69 | 995.6 |
| 20260904074546 | 49 | 32 | 0.0 | 0.0 | 0.09 | 0.23 | 0.08 | 69 | 996.0 |
| 20260904073048 | 49 | 44 | 0.0 | 0.0 | 0.09 | 0.22 | 0.07 | 71 | 995.7 |
| 20260904071541 | 50 | 19 | 0.0 | 0.0 | 0.06 | 0.19 | 0.04 | 73 | 996.0 |
| 20260904070038 | 50 | 18 | 0.0 | 0.0 | 0.04 | 0.16 | 0.01 | 74 | 996.0 |
| 20260904064538 | 50 | 18 | 0.0 | 0.0 | 0.03 | 0.18 | 0.14 | 75 | 995.9 |
| 20260904063038 | 50 | 18 | 0.0 | 0.0 | 0.02 | 0.17 | 0.13 | 78 | 995.7 |
| 20260904061541 | 50 | 18 | 0.0 | 0.0 | 0.02 | 0.17 | 0.13 | 81 | 995.6 |
| 20260904060035 | 50 | 18 | 0.0 | 0.0 | 0.01 | 0.16 | 0.12 | 83 | 995.5 |
| 20260904054534 | 53 | 43 | 0.0 | 2.0 | 0.00 | 0.19 | 0.11 | 78 | 995.4 |
| 20260904053034 | 55 | 28 | 0.0 | 3.0 | 0.00 | 0.19 | 0.11 | 66 | 995.2 |
| 20260904051534 | 55 | 74 | 1.0 | 6.0 | 0.00 | 0.19 | 0.11 | 59 | 995.2 |
| 20260904050033 | 53 | 255 | 0.0 | 0.0 | 0.00 | 0.19 | 0.11 | 78 | 995.2 |
| 20260904044533 | 52 | 51 | 0.0 | 0.0 | 0.00 | 0.27 | 0.11 | 83 | 995.2 |
| 20260904043033 | 51 | 51 | 0.0 | 0.0 | 0.00 | 0.27 | 0.11 | 83 | 995.0 |
| 20260904041531 | 52 | 51 | 0.0 | 0.0 | 0.00 | 0.27 | 0.11 | 83 | 995.1 |
| 20260904040030 | 51 | 51 | 0.0 | 0.0 | 0.00 | 0.27 | 0.11 | 83 | 995.3 |
| 20260904034537 | 51 | 51 | 0.0 | 0.0 | 0.00 | 0.27 | 0.11 | 83 | 995.2 |
| 20260904033028 | 51 | 51 | 0.0 | 0.0 | 0.00 | 0.27 | 0.11 | 83 | 995.3 |
| 20260904031529 | 51 | 51 | 0.0 | 0.0 | 0.00 | 0.27 | 0.11 | 82 | 995.2 |
| 20260904030028 | 51 | 51 | 0.0 | 0.0 | 0.00 | 0.27 | 0.11 | 81 | 995.2 |
| 20260904024528 | 51 | 51 | 0.0 | 0.0 | 0.00 | 0.27 | 0.11 | 80 | 995.1 |
| 20260904023027 | 52 | 51 | 0.0 | 0.0 | 0.00 | 0.27 | 0.11 | 78 | 995.1 |
| 20260904021528 | 53 | 53 | 0.0 | 1.0 | 0.00 | 0.27 | 0.11 | 79 | 995.2 |
| 20260904020027 | 54 | 139 | 0.0 | 0.0 | 0.00 | 0.27 | 0.11 | 72 | 995.3 |
| 20260904014526 | 55 | 164 | 0.0 | 0.0 | 0.00 | 0.27 | 0.11 | 73 | 995.4 |
| 20260904013025 | 57 | 163 | 0.0 | 0.0 | 0.00 | 0.27 | 0.11 | 66 | 995.3 |
| 20260904011526 | 58 | 164 | 0.0 | 0.0 | 0.00 | 0.27 | 0.11 | 63 | 995.5 |
| 20260904010034 | 59 | 163 | 0.0 | 0.0 | 0.00 | 0.27 | 0.11 | 64 | 995.6 |
| 20260904004524 | 60 | 164 | 0.0 | 0.0 | 0.00 | 0.27 | 0.11 | 58 | 995.7 |
| 20260904003025 | 61 | 164 | 0.0 | 1.0 | 0.00 | 0.27 | 0.11 | 53 | 995.8 |
| 20260904001522 | 62 | 271 | 0.0 | 2.0 | 0.00 | 0.27 | 0.11 | 50 | 995.9 |
| 20260904000022 | 62 | 256 | 0.0 | 3.0 | 0.00 | 0.27 | 0.11 | 48 | 996.0 |
| 20260903234521 | 63 | 246 | 0.0 | 4.0 | 0.00 | 0.27 | 0.11 | 52 | 995.9 |
| 20260903233020 | 63 | 129 | 0.0 | 1.0 | 0.00 | 0.27 | 0.11 | 52 | 995.9 |
| 20260903231530 | 63 | 236 | 0.0 | 0.0 | 0.00 | 0.27 | 0.11 | 50 | 996.1 |
| 20260903230024 | 61 | 256 | 1.0 | 2.0 | 0.00 | 0.27 | 0.11 | 53 | 996.4 |
| 20260903224531 | 61 | 235 | 0.0 | 2.0 | 0.00 | 0.27 | 0.11 | 55 | 996.5 |
| 20260903223017 | 62 | 169 | 1.0 | 4.0 | 0.00 | 0.27 | 0.11 | 52 | 996.5 |
| 20260903221516 | 62 | 253 | 0.0 | 3.0 | 0.00 | 0.27 | 0.11 | 51 | 996.4 |
| 20260903220013 | 61 | 264 | 1.0 | 7.0 | 0.00 | 0.27 | 0.11 | 53 | 996.5 |
| 20260903214522 | 61 | 167 | 1.0 | 4.0 | 0.00 | 0.27 | 0.11 | 54 | 996.6 |
| 20260903213010 | 59 | 219 | 0.0 | 5.0 | 0.00 | 0.27 | 0.11 | 57 | 996.6 |
| 20260903211510 | 60 | 188 | 0.0 | 3.0 | 0.00 | 0.27 | 0.11 | 56 | 996.6 |
| 20260903210010 | 60 | 255 | 1.0 | 7.0 | 0.00 | 0.27 | 0.11 | 54 | 996.7 |
| 20260903204511 | 60 | 131 | 1.0 | 5.0 | 0.00 | 0.30 | 0.11 | 56 | 996.8 |
| 20260903203006 | 60 | 245 | 3.0 | 7.0 | 0.00 | 0.30 | 0.11 | 55 | 996.9 |
| 20260903201504 | 60 | 283 | 0.0 | 8.0 | 0.00 | 0.30 | 0.11 | 61 | 997.0 |
| 20260903200002 | 60 | 205 | 2.0 | 9.0 | 0.00 | 0.30 | 0.11 | 65 | 997.1 |
| 20260903194557 | 57 | 242 | 0.0 | 5.0 | 0.00 | 0.32 | 0.11 | 86 | 997.1 |
| 20260903193052 | 54 | 214 | 0.0 | 6.0 | 0.00 | 0.32 | 0.11 | 70 | 997.2 |
| 20260903191550 | 53 | 260 | 1.0 | 5.0 | 0.00 | 0.32 | 0.11 | 69 | 997.1 |
| 20260903190050 | 52 | 207 | 0.0 | 7.0 | 0.00 | 0.32 | 0.11 | 69 | 997.1 |
| 20260903184549 | 52 | 160 | 0.0 | 7.0 | 0.00 | 0.35 | 0.11 | 68 | 997.0 |
| 20260903183049 | 52 | 274 | 1.0 | 5.0 | 0.00 | 0.35 | 0.11 | 68 | 997.1 |
| 20260903181547 | 52 | 155 | 0.0 | 4.0 | 0.00 | 0.35 | 0.11 | 68 | 997.0 |
| 20260903180045 | 52 | 152 | 0.0 | 8.0 | 0.00 | 0.35 | 0.11 | 68 | 996.9 |
| 20260903174545 | 52 | 208 | 1.0 | 4.0 | 0.00 | 0.35 | 0.11 | 69 | 996.7 |
| 20260903173041 | 51 | 243 | 0.0 | 4.0 | 0.00 | 0.35 | 0.11 | 70 | 996.8 |
| 20260903171539 | 51 | 271 | 0.0 | 7.0 | 0.00 | 0.35 | 0.11 | 70 | 996.8 |
| 20260903170039 | 51 | 135 | 0.0 | 2.0 | 0.00 | 0.35 | 0.11 | 70 | 996.8 |
| 20260903164536 | 51 | 208 | 0.0 | 3.0 | 0.00 | 0.35 | 0.11 | 70 | 996.7 |
| 20260903163039 | 51 | 259 | 0.0 | 4.0 | 0.00 | 0.35 | 0.11 | 70 | 996.8 |
| 20260903161533 | 51 | 144 | 0.0 | 3.0 | 0.00 | 0.35 | 0.11 | 70 | 996.7 |
| 20260903160030 | 52 | 280 | 0.0 | 0.0 | 0.00 | 0.35 | 0.11 | 70 | 996.6 |
| 20260903154528 | 51 | 283 | 0.0 | 0.0 | 0.00 | 0.35 | 0.11 | 71 | 996.6 |
| 20260903153027 | 51 | 281 | 0.0 | 0.0 | 0.00 | 0.35 | 0.11 | 71 | 996.7 |
| 20260903151525 | 51 | 283 | 0.0 | 0.0 | 0.00 | 0.35 | 0.11 | 71 | 996.5 |
| 20260903150025 | 50 | 282 | 0.0 | 0.0 | 0.00 | 0.35 | 0.11 | 71 | 996.4 |
| 20260903144524 | 50 | 138 | 0.0 | 0.0 | 0.00 | 0.35 | 0.11 | 71 | 996.2 |
| 20260903143021 | 50 | 253 | 0.0 | 0.0 | 0.00 | 0.35 | 0.11 | 70 | 996.1 |
| 20260903141518 | 50 | 253 | 0.0 | 0.0 | 0.01 | 0.35 | 0.11 | 70 | 995.9 |
| 20260903140017 | 50 | 253 | 0.0 | 0.0 | 0.01 | 0.35 | 0.11 | 70 | 995.7 |
| 20260903134516 | 50 | 253 | 0.0 | 0.0 | 0.02 | 0.35 | 0.11 | 70 | 995.5 |
| 20260903133017 | 50 | 252 | 0.0 | 0.0 | 0.02 | 0.35 | 0.11 | 70 | 995.2 |
| 20260903131511 | 50 | 252 | 0.0 | 0.0 | 0.01 | 0.34 | 0.10 | 70 | 995.1 |
| 20260903130010 | 51 | 252 | 0.0 | 0.0 | 0.02 | 0.34 | 0.10 | 69 | 995.0 |
| 20260903124516 | 51 | 141 | 0.0 | 0.0 | 0.02 | 0.33 | 0.09 | 69 | 994.9 |
| 20260903123005 | 51 | 143 | 0.0 | 0.0 | 0.02 | 0.33 | 0.09 | 69 | 994.8 |
| 20260903121505 | 51 | 143 | 0.0 | 0.0 | 0.03 | 0.33 | 0.09 | 69 | 994.7 |
| 20260903120005 | 51 | 143 | 0.0 | 1.0 | 0.03 | 0.32 | 0.08 | 69 | 994.6 |
| 20260903114503 | 51 | 13 | 0.0 | 0.0 | 0.03 | 0.31 | 0.07 | 69 | 994.6 |
| 20260903113002 | 51 | 13 | 0.0 | 0.0 | 0.04 | 0.31 | 0.07 | 68 | 994.6 |
| 20260903111600 | 51 | 13 | 0.0 | 0.0 | 0.04 | 0.30 | 0.06 | 68 | 994.6 |
| 20260903110103 | 51 | 13 | 0.0 | 0.0 | 0.03 | 0.28 | 0.05 | 68 | 994.4 |
| 20260903104604 | 51 | 13 | 0.0 | 0.0 | 0.03 | 0.28 | 0.04 | 68 | 994.4 |
| 20260903103101 | 52 | 13 | 0.0 | 0.0 | 0.02 | 0.27 | 0.03 | 68 | 994.3 |